Location: Bégole
(43.1574°N, 0.3291°E)
Time: 02:35:33
(UTC+00:00)

deb Delta 89 - Pass Details

Date: 26 February 2024
Orbit: 714 x 2021 km, 97.5° (Epoch: 13 April)

Event Time Altitude Azimuth Distance (km) Brightness Sun altitude
Rises 05:40:46 0° 6° (N) 5,450 ? -11.7°
Reaches altitude 10° 05:46:27 10° 344° (NNW) 4,483 ? -10.7°
Maximum altitude 05:50:53 13° 320° (NW) 4,177 ? -9.9°
Drops below altitude 10° 05:55:14 10° 297° (WNW) 4,371 ? -9.1°
Enters shadow 05:56:33 - 290° (WNW) 4,520 ? -8.8°
